Regional Weather Roundup
Issued by NWS

Home | Current Version | Previous Version | Text Only | Print | Product List | Glossary Off
Versions: 1 2 3 4 5 6 7 8 9 10 11 12 13 14 15 16 17 18 19 20 21 22 23 24 25 26 27 28 29 30 31 32 33 34 35 36 37 38 39 40 41 42 43 44 45 46 47 48 49 50

000
ASUS43 KMPX 181710
RWRMN
WEATHER ROUNDUP FOR MINNESOTA
NATIONAL WEATHER SERVICE TWIN CITIES/CHANHASSEN MN
1100 AM CST WED JAN 18 2017


NOTE: "FAIR" INDICATES FEW OR NO CLOUDS BELOW 12,000 FEET WITH NO
SIGNIFICANT WEATHER AND/OR OBSTRUCTIONS TO VISIBILITY. N/A MEANS
CURRENT SKY AND/OR WEATHER CONDITIONS ARE NOT AVAILABLE.

MNZ060>063-068>070-181800-
   Twin Cities Metro

CITY           SKY/WX    TMP DP  RH WIND       PRES   REMARKS
TWIN CITIES    SUNNY     36  28  73 S10       29.89F
ST PAUL        SUNNY     35  30  82 S8        29.91F WCI  29
CRYSTAL        SUNNY     36  27  69 S12       29.88S
BLAINE         SUNNY     37  30  75 SW9       29.88F
LAKEVILLE      SUNNY     36  30  80 SW6       29.89F
EDEN PRAIRIE   SUNNY     35  28  75 MISG      29.88F
SOUTH ST PAUL  SUNNY     35  29  78 S7        29.90F WCI  29
LAKE ELMO      FAIR      34  30  86 S12       29.91R WCI  25
$$
MNZ001>005-007-008-013>017-022>024-027-028-181800-
   Northwest Minnesota

CITY           SKY/WX    TMP DP  RH WIND       PRES   REMARKS
BEMIDJI        SUNNY     33  23  65 SW7       29.75R WCI  27
HALLOCK        CLOUDY    23  19  86 S8        29.69R WCI  14
ROSEAU         CLOUDY    27  19  74 CALM      29.70S
WARROAD        CLOUDY    28  21  74 SW6       29.70S WCI  22
THIEF RVR FALL CLOUDY    27  20  75 S13       29.73S WCI  16
CROOKSTON      CLOUDY    23  18  80 S14       29.75F WCI  11
FOSSTON        CLOUDY    27  19  74 S13       29.76S WCI  16
DETROIT LAKES  CLOUDY    32  23  69 S6        29.78F WCI  26
MOORHEAD       CLOUDY    25  19  80 S9        29.78F WCI  15
PARK RAPIDS    CLOUDY    30  20  66 SW3       29.77S
MAHNOMEN       FAIR      26  20  77 S13       29.76S WCI  15
$$
MNZ006-009>011-018-025>026-181800-
   North Central Minnesota

CITY           SKY/WX    TMP DP  RH WIND       PRES   REMARKS
BAUDETTE       CLOUDY    27  19  72 S5        29.71R WCI  22
FLAG ISLAND    CLOUDY    19  16  86 SE6       29.70R WCI  11
INTL FALLS     SUNNY     31  21  66 SW8       29.73R WCI  23
WASKISH        CLOUDY    32  23  69 SW10      29.73S WCI  24
BIG FORK       SUNNY     30  21  69 SW8       29.75R WCI  23
LONGVILLE      CLOUDY    34  23  64 SW6       29.77R WCI  29
GRAND RAPIDS   CLOUDY    31  23  72 SW3       29.79R
CRANE LAKE     CLOUDY    30  21  69 SW6       29.77R WCI  24
ORR            SUNNY     30  19  64 CALM      29.73R
COOK           SUNNY     30  21  69 SW6       29.76S WCI  24
WALKER         FAIR      34  23  64 W10       29.76R WCI  26
$$
MNZ012-019>021-037-181800-
   Northeast Minnesota

CITY           SKY/WX    TMP DP  RH WIND       PRES   REMARKS
DULUTH         SUNNY     32  25  75 SW9       29.78S WCI  24
ELY            SUNNY     30  21  69 SW9       29.75S WCI  22
HIBBING        CLOUDY    29  22  75 SW6       29.77R WCI  23
EVELETH        CLOUDY    30  23  74 SW9       29.78S WCI  22
DULUTH HARBOR  SUNNY     34  27  75 SW15      29.82S WCI  24
TWO HARBORS    SUNNY     37  28  70 W9        29.77S
SILVER BAY     SUNNY     37  28  70 W3        29.75S
GRAND MARAIS     N/A     36  31  82 SW15      29.77S
G MARAIS ARPRT SUNNY     32  21  64 CALM      29.72S
$$
MNZ029>031-032-039>041-046>048-054>057-064-181800-
   West Central Minnesota

CITY           SKY/WX    TMP DP  RH WIND       PRES   REMARKS
FERGUS FALLS   SUNNY     28  21  74 SE3       29.85R
WHEATON        CLOUDY    37  28  70 S10       29.80F
MORRIS         CLOUDY    30  25  80 S13       29.79F WCI  20
ALEXANDRIA     CLOUDY    30  24  78 SW7       29.81R WCI  23
ELBOW LAKE     FAIR      28  23  82 SE9       29.80R FOG     WCI  19
WADENA         CLOUDY    30  21  69 CALM      29.79R
GLENWOOD       CLOUDY    30  25  80 S8        29.81F WCI  23
APPLETON       CLOUDY    36  23  60 S6        29.82F
ORTONVILLE     CLOUDY    30  21  69 CALM      29.81F
MADISON        CLOUDY    36  27  69 S9        29.83F
WILLMAR        FAIR      30  27  86 CALM      29.86S
$$
MNZ033>034-036-042>043-049>051-058-059-181800-
   Central Minnesota

CITY           SKY/WX    TMP DP  RH WIND       PRES   REMARKS
ST CLOUD       SUNNY     31  27  85 S12       29.85S WCI  22
SAUK CENTRE    FAIR      30  25  82 S7        29.82F WCI  23
PAYNESVILLE    SUNNY     32  26  80 S7        29.85S WCI  26
AITKIN         SUNNY     36  21  55 SW6       29.78F
PINE RIVER     CLOUDY    30  23  74 SW3       29.82F
BRAINERD       CLOUDY    29  24  82 SW5       29.81R WCI  24
STAPLES        CLOUDY    30  21  69 CALM      29.80R
LONG PRAIRIE   FAIR      32  25  74 S5        29.81S WCI  27
LITTLE FALLS   SUNNY     30  23  74 S7        29.82F WCI  23
LITCHFIELD     CLOUDY    34  28  80 S3        29.86F
BUFFALO        SUNNY     34  27  76 S9        29.88F WCI  26
MAPLE LAKE     SUNNY     34  29  82 SW9       29.87F WCI  27
HUTCHINSON     CLOUDY    32  30  91 S7        29.88F WCI  26
$$
MNZ037-044-045-052-053-181800-
   East Central Minnesota

CITY           SKY/WX    TMP DP  RH WIND       PRES   REMARKS
PRINCETON      SUNNY     36  27  69 S7        29.86S
MORA           SUNNY     32  27  80 SW9       29.86S WCI  24
CAMBRIDGE      SUNNY     36  27  69 S9        29.85R
RUSH CITY      SUNNY     34  27  75 S8        29.87S WCI  27
MOOSE LAKE     SUNNY     32  25  74 SW9       29.80F WCI  24
HINCKLEY       FAIR      32  28  86 SW9       29.85S WCI  24
CLOQUET        SUNNY     30  23  74 SW5       29.79S WCI  25
MCGREGOR       SUNNY     32  27  80 SW7       29.80S WCI  26
$$
MNZ071>073-080-081-089-090-097-098-181800-
   Southwest Minnesota

CITY           SKY/WX    TMP DP  RH WIND       PRES   REMARKS
MONTEVIDEO     CLOUDY    37  30  75 SW8       29.85F
GRANITE FALLS  CLOUDY    32  28  82 S9        29.87F WCI  25
CANBY            N/A     36  26  66 CALM      29.85F
MARSHALL       CLOUDY    36  27  69 W13       29.85F
REDWOOD FALLS  CLOUDY    33  27  78 S9        29.87F WCI  25
OLIVIA         CLOUDY    32  28  86 S8        29.86S WCI  25
PIPESTONE      CLOUDY    34  30  86 SW12      29.87R WCI  25
WINDOM           N/A     36  30  80 SW18      29.88S
WORTHINGTON    CLOUDY    36  30  79 SW13      29.90R
JACKSON        CLOUDY    34  30  86 SW12      29.91S WCI  25
TRACY          SUNNY     36  30  80 SW14      29.86R
SLAYTON        CLOUDY    32  29  90 SW14      29.88R WCI  22
$$
MNZ065>067-074>077-082>085-091>093-181800-
   South Central Minnesota

CITY           SKY/WX    TMP DP  RH WIND       PRES   REMARKS
MANKATO        SUNNY     34  30  85 S10       29.92S WCI  26
NEW ULM        SUNNY     32  28  86 S7        29.89F WCI  26
ST JAMES       CLOUDY    34  30  86 S8        29.92S WCI  27
FAIRMONT       CLOUDY    34  30  85 S17       29.93S WCI  23
GLENCOE        SUNNY     34  31  90 S9        29.87F WCI  27
FARIBAULT      SUNNY     36  30  80 S10       29.93S
OWATONNA       CLOUDY    34  28  80 S13       29.93F FOG     WCI  25
WASECA         CLOUDY    32  30  93 S10       29.95S WCI  24
ALBERT LEA     CLOUDY    34  32  93 S10       29.94F FOG     WCI  26
$$
MNZ078>079-086>088-094>096-181800-
   Southeast Minnesota

CITY           SKY/WX    TMP DP  RH WIND       PRES   REMARKS
ROCHESTER      FOG       29  29 100 S18       29.95S VSB 3/4 WCI  16
RED WING       SUNNY     36  27  69 S6        29.92F
STANTON        SUNNY     35  29  81 S9        29.91F WCI  27
DODGE CENTER   CLOUDY    28  28 100 S7        29.94R FOG     WCI  21
WINONA         SUNNY     36  30  80 SW7       29.99R
AUSTIN         FOG       30  28  93 S14       29.96F VSB 1/2 WCI  20
PRESTON        FOG       28  27  96 S20       29.97S VSB 3/4 WCI  15
$$
ABBREVIATIONS USED IN REMARKS
   TC - TEMPERATURES IN CELSIUS
  WCI - WIND CHILL INDEX
   HX - HEAT INDEX
  VSB - VISIBILITY
$$



USA.gov is the U.S. government's official web portal to all federal, state and local government web resources and services.